Hourly Data Report for October 04, 2017

All times are specified in Local Standard Time (LST). Add 1 hour to adjust for Daylight Saving Time where and when it is observed.

WHITE ROCK CAMPBELL SCIENTIFIC
BRITISH COLUMBIA

49°01'05.000" N
122°47'02.000" W
13.00 m
1108910
71785
WWK

Download Data

Hourly Data (October 2017)
Hourly Data Report for October 4, 2017
Temp Definition
°C
Dew Point Temp Definition
°C
Rel Hum Definition
%
Wind Dir Definition
10's deg

Wind Spd Definition
km/h
Visibility Definition
km
Stn Press Definition
kPa
Hmdx Definition


Wind Chill Definition


Weather Definition


TIME
00:00 6.9 5.1 88   0   102.18     LegendNANA
01:00 6.1 4.5 89   0   102.20     LegendNANA
02:00 6.3 4.5 88 8 4   102.19     LegendNANA
03:00 5.3 3.8 90   0   102.16     LegendNANA
04:00 5.0 3.6 91   0   102.11     LegendNANA
05:00 4.6 3.5 93   0   102.07     LegendNANA
06:00 4.7 3.7 93   0   102.07     LegendNANA
07:00 5.4 4.0 91   0   102.09     LegendNANA
08:00 9.0 6.7 86   0   102.11     LegendNANA
09:00 13.9 5.2 56 12 2   102.12     LegendNANA
10:00 13.8 4.5 53 19 5   102.10     LegendNANA
11:00 14.3 7.5 64 24 5   102.08     LegendNANA
12:00 14.8 9.3 70 22 6   102.07     LegendNANA
13:00 14.8 8.3 65 23 4   102.04     LegendNANA
14:00 15.4 9.5 68 20 5   102.01     LegendNANA
15:00 15.2 7.6 61 20 4   101.98     LegendNANA
16:00 15.5 9.4 67 24 2   101.97     LegendNANA
17:00 14.0 11.0 82 20 2   101.94     LegendNANA
18:00 12.4 10.0 85   0   101.95     LegendNANA
19:00 10.9 8.7 87   0   101.94     LegendNANA
20:00 9.7 7.9 89 0 1   101.97     LegendNANA
21:00 8.8 6.7 87   0   101.98     LegendNANA
22:00 7.9 6.1 88   0   102.01     LegendNANA
23:00 7.2 5.6 90 0 1   102.02     LegendNANA

Notes on Data Quality.

Legend

  • E = Estimated
  • M = Missing
  • NA = Not Available
  • ‡ = Partner data that is not subject to review by the National Climate Archives
Date modified: